Temp
22 22 21 23 27 30 31 30 30 28 27 23 22 23 22 19 20 20 12 10 10 10 8 7 6 6 6 5 5 5 5 5 4 4 4 5 5 6 8 9 9 9 7 7 5 5 5 5 5
20 20 22 26 28 31 31 30 29 27 23 21 21 22 22 18 15 13 11 10 10 10 9 8 7 6 5 5 5 5 5 5 5 5 6 5 6 7 8 8 8 9 9 9 8 5 4 6 7
22 22 25 30 31 31 30 29 27 23 21 22 21 20 19 16 14 13 11 10 10 10 9 7 8 6 6 5 5 5 5 5 4 6 7 7 7 7 8 8 8 8 8 8 8 7 8 8 8
22 24 26 28 30 30 29 28 26 24 21 21 22 20 15 15 14 12 10 10 10 10 8 9 8 8 7 5 4 6 5 5 4 6 6 6 7 7 7 7 7 7 7 7 7 7 8 8 8
23 26 29 30 31 30 28 26 25 25 23 22 21 20 15 13 12 11 10 10 10 9 8 6 8 7 7 6 5 6 6 6 6 6 7 6 6 7 7 6 6 6 6 6 6 6 6 6 7
26 28 28 30 31 29 27 25 25 25 22 20 21 19 16 13 12 11 10 10 9 8 8 7 8 7 7 7 7 6 6 5 6 6 6 6 6 6 5 6 5 5 5 5 5 5 5 5 5
27 29 29 30 29 29 27 24 25 24 22 22 20 21 15 13 11 11 10 9 8 8 7 7 6 6 6 6 6 6 6 6 5 6 6 6 5 6 5 3 1 4 4 4 4 5 5 5 5
27 29 28 30 29 28 25 24 23 23 23 20 20 21 16 13 11 11 10 8 8 7 6 6 6 6 6 5 6 6 6 5 5 5 5 5 4 2 2 1 2 4 4 4 4 4 4 4 4
26 27 28 29 28 27 24 24 21 20 20 19 18 18 16 13 11 11 10 9 8 7 7 6 6 6 5 6 5 4 4 4 3 2 2 2 3 2 2 1 1 2 2 3 3 3 4 4 3
28 28 29 27 28 27 25 24 22 21 20 19 17 16 14 12 12 11 11 10 9 9 7 7 6 6 6 6 5 5 4 4 3 2 2 2 1 2 1 1 1 0 -0 -0 -0 -0 -0 1 1
27 28 28 27 25 24 25 24 22 22 22 22 19 15 13 12 12 12 12 12 11 10 9 8 6 5 6 5 5 6 5 4 4 3 1 1 1 2 2 2 2 1 1 1 1 1 1 -1 -1
26 27 25 26 23 24 25 24 22 22 22 20 19 15 13 13 13 13 13 12 12 10 9 8 6 5 6 5 5 5 5 3 4 2 1 0 1 1 1 1 1 1 1 0 0 -0 -1 -2 -2
26 27 24 23 22 23 22 23 23 21 19 18 18 15 14 14 13 13 13 13 12 10 9 8 6 5 5 5 4 4 3 4 2 2 1 -0 -0 0 -0 0 0 0 0 -0 -1 -2 -2 -2 -2
25 24 24 23 22 21 22 23 20 21 18 18 16 15 15 14 14 14 13 13 11 10 8 7 6 5 4 4 3 3 4 3 3 2 1 -1 -1 -1 -1 -1 -0 -0 -0 -2 -3 -3 -3 -2 -2
23 24 24 23 23 23 21 23 21 20 18 18 17 16 15 15 14 14 13 12 11 10 9 6 5 5 4 4 3 4 3 2 2 2 1 -0 -1 -2 -2 -1 -0 -1 -2 -3 -4 -3 -3 -2 -2
23 24 23 26 23 22 21 23 23 19 19 18 17 16 16 15 14 14 13 12 11 11 8 7 6 5 4 3 3 3 3 2 2 1 1 -0 -2 -2 -2 -1 -1 -1 -2 -3 -3 -3 -3 -3 -3
25 23 24 24 24 23 21 22 23 20 19 19 18 17 16 15 14 14 13 12 12 10 8 7 5 5 4 3 3 3 2 2 2 1 1 -1 -2 -2 -2 -2 -1 -2 -2 -2 -2 -3 -3 -4 -4
23 24 24 24 25 22 22 22 24 20 20 20 19 18 16 15 15 14 13 12 11 10 8 7 5 4 3 4 4 4 4 3 2 2 1 -1 -2 -2 -3 -2 -2 -2 -2 -2 -3 -4 -5 -5 -5
22 22 22 23 24 22 21 22 24 22 20 20 19 19 17 16 15 14 12 12 11 9 7 6 5 4 4 4 4 3 3 3 2 1 0 -1 -1 -2 -3 -2 -2 -2 -2 -3 -5 -5 -5 -5 -5
21 21 21 23 23 22 21 22 24 24 22 21 20 19 18 16 15 13 12 11 10 8 7 6 5 4 4 3 3 2 2 2 2 1 0 -0 -1 -2 -3 -3 -3 -3 -3 -4 -5 -5 -6 -6 -6
21 21 20 19 21 22 22 21 22 24 23 21 20 19 18 16 15 13 11 10 9 8 6 6 5 4 3 2 3 2 2 2 2 1 1 0 -1 -2 -2 -3 -3 -3 -3 -4 -5 -6 -6 -6 -6
19 20 19 19 19 19 22 19 21 23 21 21 20 19 18 17 15 13 11 10 9 7 6 6 4 3 3 2 2 1 2 1 1 1 0 -1 -1 -2 -2 -3 -3 -4 -4 -4 -5 -6 -6 -6 -6
19 19 19 19 19 19 19 19 20 21 16 19 20 18 18 17 15 13 11 10 8 7 6 5 4 3 2 1 1 1 0 0 0 -0 -1 -1 -1 -1 -2 -3 -4 -4 -4 -4 -5 -6 -6 -6 -6
19 19 20 20 20 16 18 18 18 12 16 18 19 18 17 16 15 13 11 9 8 7 5 4 4 3 2 1 1 -0 -0 -1 -1 -1 -1 -1 -1 -2 -2 -3 -4 -4 -4 -5 -5 -6 -6 -6 -6
19 19 15 14 15 14 18 18 17 15 16 16 17 17 16 15 14 11 9 9 7 6 5 4 4 3 2 1 0 -0 -1 -1 -1 -1 -2 -2 -2 -2 -3 -4 -4 -4 -5 -6 -6 -6 -6 -6 -6
18 18 14 11 14 15 18 15 10 16 14 14 15 16 15 14 12 10 9 8 7 5 5 5 4 3 2 1 0 -0 -1 -1 -1 -2 -2 -2 -3 -3 -4 -4 -4 -5 -5 -6 -6 -6 -6 -6 -7
17 15 17 15 15 14 16 15 15 16 15 12 13 14 13 12 11 10 8 7 6 5 4 3 3 2 1 1 0 -0 -1 -1 -2 -2 -3 -3 -3 -4 -4 -4 -5 -5 -6 -6 -7 -7 -7 -7 -7
16 17 14 14 11 11 14 15 12 14 14 14 13 12 11 11 11 9 8 7 6 4 3 2 2 2 1 0 -0 -1 -1 -2 -2 -2 -3 -3 -4 -4 -4 -5 -5 -6 -6 -7 -7 -7 -7 -8 -7
15 14 11 10 10 10 11 11 16 13 15 13 11 12 12 11 9 8 8 6 5 4 3 2 2 1 1 -0 -0 -1 -1 -2 -2 -2 -3 -4 -4 -4 -4 -5 -6 -6 -7 -7 -8 -8 -8 -7 -7
16 15 9 9 9 9 10 11 15 15 13 12 12 11 10 9 9 8 7 6 5 4 3 2 1 1 0 -0 -0 -1 -1 -2 -2 -3 -3 -4 -4 -4 -4 -5 -6 -7 -7 -8 -8 -8 -8 -7 -7
Height
1494 1494 1496 1497 1491 1467 1452 1451 1456 1468 1477 1490 1492 1489 1495 1502 1502 1509 1523 1523 1525 1526 1525 1525 1523 1524 1524 1525 1525 1524 1524 1523 1522 1521 1520 1518 1516 1514 1512 1510 1509 1507 1506 1504 1503 1503 1502 1500 1497
1495 1497 1497 1488 1480 1462 1451 1453 1461 1475 1488 1493 1495 1495 1497 1507 1512 1516 1521 1523 1525 1526 1528 1527 1524 1524 1524 1524 1524 1523 1523 1522 1521 1519 1518 1516 1515 1513 1511 1509 1507 1505 1504 1502 1500 1499 1497 1495 1492
1494 1497 1493 1471 1461 1460 1457 1460 1475 1487 1492 1492 1496 1498 1503 1512 1516 1519 1520 1523 1525 1526 1528 1524 1523 1524 1524 1524 1523 1523 1522 1521 1520 1518 1517 1515 1513 1511 1509 1507 1505 1503 1501 1499 1498 1496 1494 1492 1490
1496 1494 1488 1476 1461 1453 1463 1469 1481 1488 1493 1495 1495 1502 1510 1514 1517 1518 1521 1524 1526 1527 1526 1523 1523 1523 1523 1523 1523 1522 1521 1520 1519 1517 1516 1514 1511 1509 1507 1505 1503 1501 1499 1497 1495 1493 1491 1489 1488
1495 1487 1474 1462 1453 1453 1468 1477 1480 1483 1489 1493 1495 1500 1511 1516 1517 1519 1521 1525 1527 1527 1527 1525 1524 1524 1523 1523 1522 1521 1521 1519 1518 1516 1514 1512 1510 1507 1505 1503 1500 1498 1496 1493 1491 1489 1488 1487 1486
1489 1478 1473 1462 1449 1459 1473 1480 1482 1484 1492 1496 1496 1501 1512 1515 1517 1520 1522 1525 1527 1528 1528 1527 1524 1524 1523 1523 1522 1521 1520 1519 1517 1514 1513 1511 1508 1505 1502 1500 1498 1495 1493 1490 1488 1486 1484 1483 1482
1487 1473 1468 1458 1460 1458 1471 1482 1484 1487 1491 1494 1497 1498 1512 1516 1518 1520 1523 1525 1526 1527 1527 1528 1528 1525 1524 1523 1522 1521 1520 1518 1516 1513 1511 1509 1506 1503 1500 1498 1495 1493 1490 1488 1485 1483 1481 1479 1477
1483 1473 1469 1455 1454 1465 1479 1482 1486 1489 1490 1497 1498 1496 1508 1513 1516 1520 1523 1524 1525 1526 1527 1527 1527 1527 1528 1525 1522 1520 1519 1517 1515 1512 1510 1508 1504 1504 1502 1498 1494 1491 1488 1485 1483 1480 1478 1476 1474
1481 1477 1466 1454 1460 1468 1481 1482 1491 1492 1495 1497 1500 1500 1503 1510 1515 1519 1522 1524 1525 1526 1527 1526 1527 1526 1526 1526 1523 1519 1517 1516 1513 1512 1510 1507 1507 1503 1501 1496 1491 1488 1485 1482 1479 1477 1475 1474 1472
1478 1470 1461 1467 1467 1469 1477 1481 1487 1491 1492 1496 1500 1502 1505 1509 1514 1518 1521 1523 1525 1526 1527 1527 1526 1525 1526 1526 1524 1523 1520 1519 1516 1512 1508 1506 1504 1501 1497 1495 1491 1488 1485 1481 1479 1476 1473 1473 1472
1473 1468 1463 1468 1476 1477 1475 1481 1485 1485 1485 1487 1495 1502 1505 1509 1513 1516 1519 1521 1523 1525 1527 1527 1525 1525 1525 1524 1523 1523 1521 1518 1516 1512 1507 1504 1501 1500 1497 1494 1492 1488 1485 1482 1479 1476 1474 1470 1467
1476 1468 1475 1472 1480 1478 1475 1478 1484 1482 1483 1487 1491 1499 1504 1507 1511 1514 1516 1519 1522 1524 1526 1526 1526 1524 1522 1523 1523 1521 1519 1516 1514 1510 1506 1502 1500 1498 1495 1493 1490 1487 1484 1480 1478 1474 1469 1467 1465
1473 1469 1478 1480 1481 1479 1481 1479 1478 1482 1487 1489 1492 1498 1502 1506 1509 1512 1515 1518 1521 1523 1525 1525 1525 1523 1523 1522 1520 1518 1516 1515 1510 1509 1505 1499 1497 1495 1492 1490 1487 1485 1482 1478 1473 1469 1467 1464 1462
1475 1476 1475 1480 1479 1480 1480 1478 1482 1480 1486 1489 1493 1497 1501 1504 1507 1511 1514 1517 1520 1522 1523 1523 1524 1522 1521 1521 1517 1515 1515 1512 1510 1508 1503 1498 1495 1493 1490 1487 1485 1483 1480 1474 1468 1466 1463 1461 1459
1478 1477 1472 1474 1476 1474 1480 1473 1474 1477 1483 1488 1491 1495 1498 1502 1505 1509 1512 1516 1519 1521 1522 1522 1522 1521 1520 1519 1517 1515 1514 1510 1509 1506 1502 1498 1494 1491 1487 1485 1483 1480 1476 1469 1466 1464 1462 1460 1457
1477 1471 1472 1455 1471 1474 1480 1467 1464 1477 1481 1484 1488 1492 1496 1500 1503 1507 1511 1514 1517 1520 1521 1522 1522 1521 1518 1517 1515 1513 1511 1507 1507 1504 1501 1497 1492 1489 1485 1483 1481 1477 1472 1467 1466 1463 1460 1457 1454
1463 1469 1461 1459 1465 1467 1476 1467 1462 1475 1477 1479 1483 1487 1492 1497 1501 1505 1509 1512 1515 1518 1520 1521 1520 1520 1518 1516 1514 1512 1509 1507 1505 1502 1499 1495 1490 1487 1483 1480 1478 1474 1470 1467 1464 1461 1457 1454 1450
1468 1464 1458 1459 1457 1467 1468 1464 1459 1468 1471 1474 1477 1482 1489 1494 1498 1502 1507 1511 1514 1517 1518 1520 1520 1518 1516 1516 1515 1512 1509 1506 1503 1500 1497 1492 1489 1485 1481 1478 1475 1471 1468 1464 1461 1456 1453 1450 1446
1476 1474 1470 1461 1458 1463 1467 1462 1453 1456 1464 1468 1472 1477 1484 1490 1495 1500 1506 1510 1514 1516 1518 1519 1518 1517 1517 1516 1513 1510 1507 1504 1501 1498 1494 1490 1487 1483 1478 1475 1471 1468 1465 1461 1456 1451 1448 1445 1443
1477 1474 1469 1460 1459 1460 1462 1458 1448 1448 1450 1458 1466 1473 1480 1487 1493 1499 1505 1510 1513 1515 1517 1518 1518 1517 1516 1514 1510 1508 1505 1502 1499 1496 1492 1489 1484 1480 1476 1472 1468 1465 1461 1457 1452 1448 1444 1441 1439
1475 1472 1471 1475 1467 1460 1454 1452 1446 1435 1438 1447 1460 1468 1476 1484 1491 1499 1505 1509 1512 1515 1516 1518 1518 1516 1513 1510 1510 1507 1504 1501 1497 1494 1490 1486 1482 1477 1473 1468 1464 1460 1457 1451 1447 1443 1439 1435 1434
1483 1474 1478 1474 1471 1468 1452 1462 1444 1438 1446 1452 1460 1465 1472 1482 1490 1499 1505 1509 1512 1515 1516 1517 1516 1515 1513 1509 1508 1505 1503 1499 1496 1492 1488 1483 1479 1475 1470 1465 1460 1456 1452 1447 1443 1439 1435 1432 1428
1483 1478 1477 1472 1468 1464 1459 1460 1447 1438 1461 1461 1461 1466 1472 1481 1490 1498 1504 1508 1512 1515 1516 1516 1515 1514 1512 1509 1507 1504 1501 1498 1494 1490 1485 1481 1476 1472 1467 1462 1456 1451 1447 1442 1437 1433 1429 1425 1423
1483 1478 1468 1460 1456 1474 1461 1459 1457 1489 1472 1464 1466 1466 1472 1479 1489 1497 1504 1509 1512 1515 1516 1516 1516 1514 1512 1509 1507 1504 1500 1497 1493 1488 1483 1478 1473 1468 1463 1458 1452 1447 1442 1436 1430 1426 1421 1418 1415
1478 1474 1488 1493 1485 1486 1462 1461 1464 1472 1474 1474 1472 1469 1474 1482 1490 1498 1505 1510 1513 1516 1517 1517 1516 1515 1512 1510 1507 1504 1500 1496 1492 1487 1482 1476 1470 1465 1459 1453 1447 1442 1436 1430 1424 1418 1414 1410 1407
1482 1482 1498 1514 1491 1479 1461 1473 1494 1475 1479 1480 1476 1474 1480 1487 1494 1502 1507 1511 1514 1517 1518 1517 1517 1515 1513 1510 1507 1504 1500 1496 1491 1486 1480 1475 1468 1462 1456 1449 1443 1437 1430 1423 1418 1411 1406 1402 1399
1486 1492 1486 1491 1483 1486 1473 1474 1477 1476 1479 1484 1484 1483 1487 1493 1499 1504 1509 1513 1516 1518 1518 1517 1517 1515 1513 1510 1507 1504 1500 1495 1490 1485 1479 1473 1466 1460 1453 1446 1439 1432 1425 1418 1410 1403 1398 1394 1390
1493 1490 1500 1499 1510 1503 1486 1473 1489 1483 1482 1483 1488 1490 1494 1497 1501 1507 1511 1515 1517 1518 1518 1517 1516 1514 1513 1510 1508 1504 1500 1495 1489 1484 1478 1471 1464 1458 1451 1444 1437 1428 1420 1412 1403 1396 1390 1385 1382
1496 1502 1509 1515 1518 1513 1501 1495 1479 1489 1484 1487 1493 1494 1496 1500 1505 1510 1514 1517 1519 1519 1519 1518 1517 1516 1514 1511 1508 1504 1500 1495 1489 1484 1477 1470 1464 1457 1450 1443 1434 1424 1414 1405 1396 1389 1384 1379 1374
1491 1496 1516 1520 1520 1518 1512 1499 1485 1487 1491 1492 1494 1497 1501 1505 1509 1512 1515 1519 1520 1521 1521 1520 1519 1517 1515 1513 1510 1505 1501 1495 1490 1484 1477 1471 1464 1458 1451 1441 1432 1421 1411 1401 1393 1386 1380 1374 1368
Wind_Speed
2 3 0 9 8 9 16 9 5 7 4 6 6 9 12 14 7 5 12 10 10 9 5 7 6 5 6 3 3 3 4 4 5 7 8 10 12 13 14 14 14 13 13 14 14 13 13 13 15
3 4 8 12 9 12 7 8 8 11 8 9 8 4 5 7 9 15 12 11 10 9 8 5 3 5 5 2 2 3 3 4 5 7 9 10 12 13 15 16 17 17 17 17 16 15 15 17 18
6 8 15 9 12 12 11 12 11 11 8 4 5 9 4 5 10 11 13 13 11 9 8 5 4 5 4 2 2 4 4 4 5 9 10 11 14 16 18 19 19 19 18 18 18 18 19 20 21
3 8 12 10 17 13 8 9 7 8 5 2 6 9 9 6 9 9 15 12 11 10 6 5 4 3 2 2 1 3 4 4 5 11 13 14 16 18 20 21 20 20 19 19 19 19 20 20 21
8 13 12 17 18 9 6 5 5 6 6 6 3 9 10 8 12 16 15 12 11 10 8 6 4 3 2 2 2 5 6 6 8 12 14 16 18 20 21 21 21 21 21 20 19 20 20 19 18
16 15 12 14 13 12 6 2 4 4 5 5 5 11 8 11 16 15 14 13 11 11 8 5 5 5 4 3 4 6 7 8 11 14 16 17 20 21 20 20 20 20 20 20 20 21 21 21 20
15 12 16 16 13 8 10 4 3 4 5 6 7 7 9 15 15 15 15 13 12 10 8 7 4 7 9 7 7 8 9 10 13 15 16 18 20 19 22 23 18 22 21 20 21 22 22 23 23
14 12 19 17 4 6 7 7 0 5 6 5 5 5 11 19 18 17 15 13 11 9 7 6 5 4 4 7 9 10 10 12 13 14 15 19 17 16 15 17 19 20 20 20 20 21 21 22 22
12 11 15 11 11 7 6 4 2 1 5 6 5 1 12 23 21 19 16 13 10 8 6 5 4 4 3 4 8 11 14 14 16 14 18 15 12 15 14 16 22 23 20 21 21 21 21 18 16
10 13 14 10 7 9 4 8 8 7 9 8 6 6 21 23 22 20 17 15 11 9 6 3 4 3 4 4 6 7 9 7 9 11 14 13 15 14 18 17 20 18 19 19 16 18 20 16 13
14 12 11 4 8 6 5 7 7 12 10 10 13 16 22 22 21 19 16 14 12 9 7 3 2 3 4 5 7 7 7 9 9 11 14 14 15 14 14 15 15 16 16 15 17 15 14 16 16
11 11 8 5 3 4 6 4 8 12 4 2 8 20 22 22 21 19 16 14 13 11 8 5 2 3 6 4 6 7 8 9 9 11 12 14 13 14 15 14 16 15 15 16 15 16 18 17 16
15 13 4 3 3 5 1 8 8 9 3 5 13 21 22 20 19 17 15 14 13 11 9 5 2 2 4 6 7 8 8 9 11 11 12 15 14 14 15 15 15 16 16 16 17 17 16 17 17
8 9 7 6 5 5 9 6 7 11 9 12 17 20 20 19 19 17 16 14 13 11 8 6 3 1 4 6 10 9 9 10 10 11 13 14 14 14 15 16 15 16 16 17 19 16 17 17 17
10 12 11 12 9 6 8 14 12 12 15 15 17 19 19 18 18 18 16 14 13 11 9 6 3 1 4 7 10 9 10 10 10 12 13 14 15 15 16 15 16 16 17 19 16 16 16 17 17
11 14 14 8 8 7 5 15 14 14 17 17 18 18 18 18 18 17 16 14 13 11 10 7 4 2 5 8 9 10 9 10 10 12 12 14 15 15 16 16 16 16 18 18 16 17 18 18 18
13 12 11 7 10 4 8 15 13 14 16 18 19 19 18 18 18 17 16 15 13 12 10 7 4 2 5 8 10 10 11 11 12 13 13 14 15 16 16 16 16 18 18 17 17 18 18 19 20
14 17 13 11 4 8 13 16 14 17 18 18 19 19 19 19 20 18 16 14 13 12 10 7 3 3 6 10 11 11 12 12 13 14 14 15 15 17 17 16 17 18 18 19 17 19 17 19 21
12 14 15 14 12 9 15 19 19 18 19 19 20 20 19 19 19 18 16 15 14 12 9 6 3 3 6 9 11 11 12 13 13 14 15 17 17 18 17 17 17 18 18 20 21 20 19 19 18
11 14 15 14 13 13 14 21 18 15 20 20 20 19 19 19 19 19 17 16 14 11 8 6 2 3 6 8 10 11 13 13 15 15 17 17 18 19 18 18 18 18 20 21 20 20 21 20 17
12 13 12 16 18 18 18 21 20 21 26 19 15 17 19 20 21 18 18 16 14 11 9 4 1 3 7 12 10 11 12 13 14 16 17 17 18 19 19 19 19 20 21 23 26 26 24 24 20
12 9 13 16 16 14 18 14 16 9 4 3 11 15 18 20 19 18 17 15 13 11 7 5 1 4 8 11 10 12 13 15 16 17 18 19 18 18 19 19 19 21 22 23 21 24 26 26 23
13 11 15 16 14 17 14 11 11 12 23 5 3 9 15 19 18 18 17 15 12 10 7 4 2 5 8 9 10 11 13 14 16 17 20 18 18 18 19 19 21 21 21 22 24 27 26 24 24
11 13 17 16 13 7 10 10 2 6 7 13 12 4 15 20 19 17 16 14 13 9 7 3 3 6 8 9 11 12 14 16 18 19 20 20 19 20 19 22 22 22 23 26 31 28 26 25 25
10 12 7 5 3 3 12 7 10 5 9 13 12 3 17 20 19 19 16 15 12 10 6 3 3 6 8 9 11 13 14 16 17 19 20 22 22 21 22 24 24 24 26 26 28 29 28 26 25
16 8 4 4 8 15 8 5 3 13 14 11 8 7 18 20 19 17 16 13 11 8 5 3 4 6 8 9 11 13 14 15 16 18 20 20 22 22 24 25 25 25 27 28 31 30 27 24 23
7 8 7 8 8 5 4 6 13 13 12 12 9 13 18 18 17 17 15 12 11 8 5 5 5 6 8 9 11 13 14 16 18 19 20 21 21 23 25 26 26 27 27 31 29 26 23 21 21
6 7 5 4 5 5 7 3 3 11 11 7 7 13 16 17 18 17 15 13 10 8 6 7 6 7 9 10 11 13 15 17 18 19 21 22 23 24 26 27 27 27 34 33 29 23 20 16 17
5 4 4 3 2 3 6 2 8 6 9 7 7 12 16 18 18 17 15 13 10 8 6 6 6 8 9 10 12 14 16 17 19 20 21 22 24 25 26 27 29 32 36 33 24 19 17 16 15
7 1 4 1 2 3 3 2 3 7 8 7 11 13 15 16 17 17 15 13 9 7 6 6 7 8 9 11 13 15 16 18 19 21 22 24 24 25 27 28 33 36 37 29 22 22 19 18 13
Wind_Direction
214 221 108 256 246 228 263 76 44 90 124 58 52 21 74 38 12 46 142 140 131 132 124 111 106 93 96 99 63 38 40 23 29 14 18 4 2 356 351 345 340 338 332 331 338 338 331 325 321
200 218 255 267 254 277 66 49 79 46 95 107 83 85 44 75 62 124 130 136 133 129 127 140 109 104 100 97 27 20 20 354 360 351 357 352 346 345 341 337 334 328 324 323 321 327 318 314 315
186 244 272 246 257 273 352 45 84 100 126 140 109 49 57 81 119 126 142 137 131 125 134 176 135 120 110 107 339 359 6 346 342 335 342 342 339 337 335 333 331 328 325 321 317 313 307 304 303
223 236 241 253 278 60 14 44 112 131 128 136 117 91 91 107 130 147 138 133 130 127 137 142 113 88 85 123 292 353 346 343 324 331 334 333 335 332 332 331 330 329 325 321 317 309 305 301 299
261 263 265 260 268 82 65 13 167 179 129 156 211 117 111 127 134 136 137 136 134 132 114 109 81 67 69 96 303 344 338 341 326 329 330 332 333 331 332 332 329 329 327 324 319 316 312 307 302
264 246 275 272 336 105 77 66 200 152 140 129 156 123 122 151 145 144 140 140 137 131 120 97 58 52 40 21 347 348 344 333 329 327 331 331 330 329 330 332 332 335 330 326 321 317 315 312 307
255 284 286 295 294 314 94 133 176 169 173 174 140 152 129 155 156 151 147 145 140 133 125 111 77 26 15 14 2 348 339 333 325 325 328 331 332 333 341 334 333 332 326 323 319 316 313 311 308
282 286 278 271 271 28 99 135 178 207 149 118 174 176 169 168 161 155 154 148 143 135 123 105 92 82 81 336 346 343 343 335 332 329 332 337 0 325 333 337 307 323 323 321 317 313 309 308 308
261 271 267 332 8 38 133 171 173 153 143 189 181 333 148 162 159 158 159 158 155 147 137 112 91 56 43 8 324 356 340 350 358 347 320 347 324 325 317 318 320 334 330 328 324 322 314 313 320
253 274 314 14 352 329 155 241 162 194 171 181 163 132 150 158 163 167 170 170 167 163 154 123 94 47 33 7 351 341 336 326 324 327 330 338 326 329 327 332 324 331 324 334 324 327 330 340 302
265 271 350 357 355 310 229 229 183 226 190 215 183 156 159 163 170 174 176 176 174 170 157 150 94 50 51 347 5 332 335 320 320 324 327 336 333 325 328 326 322 320 323 324 321 321 314 299 305
273 276 310 345 304 275 255 201 214 236 67 71 169 170 168 171 175 178 178 174 172 167 164 145 142 39 12 31 344 344 329 322 319 316 330 333 333 328 324 324 320 320 319 318 318 312 308 311 305
265 285 295 270 220 246 195 218 247 223 178 178 162 169 174 176 179 180 179 176 174 170 167 157 140 46 5 6 344 335 334 320 327 328 324 331 334 328 326 322 321 317 317 317 311 313 311 307 306
327 280 271 239 201 211 237 211 236 183 180 165 167 173 177 181 182 180 180 179 179 176 175 171 165 23 352 348 344 343 324 325 326 324 316 329 329 324 326 322 316 316 315 307 311 311 310 307 306
270 259 213 228 204 202 254 249 217 162 176 172 176 178 181 185 184 184 184 182 183 181 183 175 187 302 344 346 330 333 321 330 322 321 321 323 328 323 324 321 316 314 309 313 313 309 311 308 304
258 245 273 177 176 161 239 285 148 169 178 182 186 184 186 186 186 186 187 187 186 183 184 177 193 264 329 327 335 330 318 321 319 318 321 317 324 321 324 319 314 309 314 316 314 312 307 303 301
219 262 287 196 189 227 221 285 135 179 190 194 194 189 188 186 187 187 187 188 186 185 184 185 200 264 314 322 331 325 319 326 317 317 315 310 325 318 320 318 311 310 313 310 304 303 302 301 301
336 312 311 296 183 199 267 259 250 194 200 214 202 195 190 189 191 187 187 186 183 186 182 190 202 275 324 340 327 321 316 314 312 313 310 316 319 317 313 315 310 314 309 305 301 295 299 298 298
300 289 289 290 296 293 277 277 269 192 210 213 211 199 193 196 190 185 186 181 178 183 181 189 225 295 337 330 330 324 322 318 313 309 311 314 311 314 314 315 312 312 308 302 302 302 301 302 298
292 286 291 305 321 311 277 277 286 262 204 210 218 204 194 192 184 177 180 180 181 184 183 191 221 325 336 338 337 331 325 321 317 321 313 313 311 312 314 309 309 309 307 305 304 300 299 300 299
299 309 327 316 305 283 265 260 263 250 249 176 206 209 198 190 184 175 180 181 180 182 186 183 216 329 342 348 335 333 334 325 322 319 320 312 314 312 311 308 307 311 307 304 302 302 298 298 294
301 360 315 304 310 302 317 291 308 344 55 196 191 212 196 188 182 179 182 181 179 182 176 173 160 356 344 348 350 341 337 332 327 323 318 320 316 314 314 312 311 311 308 304 298 297 291 291 285
301 330 301 289 284 296 297 279 268 7 40 17 170 217 203 185 179 177 181 176 175 175 168 169 65 4 357 356 352 350 339 334 329 324 325 324 321 319 318 316 312 309 306 302 297 295 291 289 280
304 286 279 295 281 292 291 276 299 22 12 1 3 217 192 176 175 169 166 166 170 162 165 130 39 1 357 357 351 350 344 336 331 328 330 326 326 323 321 316 317 314 310 303 300 301 297 290 282
260 307 338 321 328 273 335 290 83 153 22 12 334 219 173 164 161 148 162 165 163 162 145 97 21 358 357 357 356 350 341 338 334 332 331 331 326 325 322 323 320 317 311 307 306 305 301 294 282
301 329 348 301 321 310 227 338 309 85 47 17 355 134 152 149 143 158 162 160 157 148 130 76 22 7 5 0 355 347 342 340 338 335 333 331 327 325 325 324 323 320 312 311 311 310 306 295 284
332 347 348 300 320 298 299 104 27 22 53 56 57 129 143 145 153 154 153 151 146 140 116 72 38 19 9 3 354 347 345 344 341 339 336 332 331 330 328 328 327 321 320 320 321 315 307 297 284
299 343 319 350 321 323 302 357 86 20 16 63 111 130 145 150 147 148 145 142 141 131 98 64 48 27 15 5 356 352 350 347 344 342 339 338 336 336 334 333 332 330 327 332 332 322 315 311 304
313 326 359 87 357 321 314 42 50 40 15 76 107 145 146 143 146 142 140 140 130 114 88 66 42 26 13 3 0 358 354 351 347 345 345 342 342 341 341 339 337 330 339 339 339 331 332 328 323
293 34 123 168 135 247 263 320 28 52 42 110 129 137 141 145 140 141 140 132 124 107 81 54 43 27 15 6 3 0 357 354 351 351 350 347 345 348 346 342 340 344 345 353 353 352 352 350 337